Location: Unspecified
(0.0000°N, 0.0000°E)
Time: 15:18:09
(UTC+00:00)

LightSail 2 - Pass Details

Date: 15 August 2019
Orbit: 701 x 732 km, 24.0° (Epoch: 21 August)

Event Time Altitude Azimuth Distance (km) Brightness Sun altitude
Rises 20:25:55 0° 274° (W) 3,072 9.4 -34.2°
Reaches altitude 10° 20:28:57 10° 292° (WNW) 2,150 8.4 -34.9°
Enters shadow 20:31:55 19° 327° (NNW) 1,622 7.4 -35.6°
